Weather Roundup
Issued by NWS Chicago, IL

Home | Current Version | Previous Version | Text Only | Print | Product List | Glossary On
Versions: 1 2 3 4 5 6 7 8 9 10 11 12 13 14 15 16 17 18 19 20 21 22 23 24 25 26 27 28 29 30 31 32 33 34 35 36 37 38 39 40 41 42 43 44 45 46 47 48 49 50
000
NZUS59 KLOT 051802
HRRLOT

CHICAGO AREA WEATHER ROUNDUP
NATIONAL WEATHER SERVICE CHICAGO/ROMEOVILLE IL
100 PM CDT TUE MAY 05 2015

NOTE: "FAIR" INDICATES FEW OR NO CLOUDS BELOW 12,000 FEET WITH NO
SIGNIFICANT WEATHER AND/OR OBSTRUCTIONS TO VISIBILITY.

* THESE STATIONS ARE NOT UNDER NWS QUALITY CONTROL. THEY ALSO MAY NOT
  REPORT WEATHER SUCH AS PRECIPITATION OR FOG.

ILZ005-006-012>014-019>023-051900-
NORTHEAST ILLINOIS

CITY           SKY/WX    TMP DP  RH WIND       PRES   REMARKS
OHARE          FOG       50  49  96 NE10      30.23F VSB 1
6HR MIN TEMP:  50; 6HR MAX TEMP:  52; 6HR PCP:  0.02;

MIDWAY         CLOUDY    57  52  83 N9        30.22F HAZE
6HR MIN TEMP:  52; 6HR MAX TEMP:  59; 6HR PCP:  0.01;

AURORA         CLOUDY    58  53  84 NE13      30.21F HAZE
6HR MIN TEMP:  54; 6HR MAX TEMP:  60; 6HR PCP:  0.02;

WAUKEGAN       CLOUDY    47  46  97 NE9       30.26S FOG
6HR MIN TEMP:  46; 6HR MAX TEMP:  48; 6HR PCP:  0.07;

DUPAGE AIRPORT CLOUDY    54  52  93 NE10      30.22F FOG
6HR MIN TEMP:  53; 6HR MAX TEMP:  55; 6HR PCP:  0.02;

WHEELING       CLOUDY    49  47  93 NE9       30.26F FOG
6HR MIN TEMP:  49; 6HR MAX TEMP:  50; 6HR PCP:  0.05;

NORTHERLY IS     N/A     48  47  96 N12         N/A
$$

WIZ051-052-058>065-066-070>072-051900-
SOUTHEAST WISCONSIN

CITY           SKY/WX    TMP DP  RH WIND       PRES   REMARKS
MILWAUKEE      LGT RAIN  46  42  86 NE13      30.30F FOG
6HR MIN TEMP:  44; 6HR MAX TEMP:  48; 6HR PCP:  0.28;

KENOSHA*       LGT RAIN  49  47  93 E13       30.28S
RACINE*        LGT RAIN  46  44  93 N13       30.30S FOG
WAUKESHA       LGT RAIN  46  45  93 E12       30.31S
$$

INZ001>003-010>013-019-020-051900-
NORTHWEST INDIANA

CITY           SKY/WX    TMP DP  RH WIND       PRES   REMARKS
GARY*          NOT AVBL
MICHIGAN CITY* NOT AVBL
RENSSELAER*    NOT AVBL
$$

LMZ740>746-051900-
SOUTHERN LAKE MICHIGAN

STATION/POSITION TIME  SKY/WX   TEMP WIND        PRES    VSBY
                                AIR  DIR/SP/G
                 (UTC)          (F)  (DEG/KT/KT) (MB)    (MI)
HARRISON CRIB    1700            46  340/ 10/ 11   N/A
BURNHAM HARBOR   1800            48  350/ 11/ 12   N/A
CALUMET HARBOR   1700            48  320/  6/  7   N/A
BURNS HARBOR     1700            57  260/  7/  8 1024.0R
MICHIGAN CITY    1700            62  130/  4/  5   N/A
$$

ABBREVIATIONS USED IN REMARKS
   TC - TEMPERATURE IN CELSIUS
  WCI - WIND CHILL INDEX
   HX - HEAT INDEX
  VSB - VISIBILITY
$$



USA.gov is the U.S. government's official web portal to all federal, state and local government web resources and services.